This demonstration page uses our WeatherBlox Daily Observations layout. Learn more.

Left ArrowRight Arrow

41.86663, -103.66717

Hourly Observations for February 21, 2016

Temp ( °F °C ) Dew Point ( °F °C ) Humidity (%) Winds ( mph kmh ) Pressure ( in mb ) Visibility ( mi km ) Precip ( " mm )
12:53 am 00:53 Clear 31 -0.6 24 -4.4 76 76 WNW 9 15 30.24 1024 10 16 N/A
1:53 am 01:53 Mostly Clear 31 -0.6 23 -5 72 72 WNW 8 13 30.28 1026 10 16 N/A
2:53 am 02:53 Clear 30 -1.1 22 -5.6 72 72 WNW 9 15 30.29 1026 10 16 N/A
3:53 am 03:53 Clear 28 -2.2 23 -5 81 81 WNW 7 11 30.31 1027 10 16 N/A
4:53 am 04:53 Clear 25 -3.9 22 -5.6 88 88 NW 8 13 30.35 1028 10 16 N/A
5:53 am 05:53 Clear 23 -5 21 -6.1 92 92 NW 6 9 30.37 1029 10 16 N/A
6:53 am 06:53 Sunny 23 -5 19 -7.2 85 85 NNW 6 9 30.40 1029 10 16 N/A
7:53 am 07:53 Sunny 29 -1.7 24 -4.4 82 82 NW 7 11 30.40 1029 10 16 N/A
8:53 am 08:53 Sunny 33 0.6 25 -3.9 72 72 W 8 13 30.41 1030 10 16 N/A
9:53 am 09:53 Sunny 39 3.9 23 -5 53 53 W 14 22 30.39 1029 10 16 N/A
10:53 am 10:53 Sunny 43 6.1 21 -6.1 42 42 NNW 12 19 30.36 1028 10 16 N/A
11:53 am 11:53 Sunny 46 7.8 19 -7.2 34 34 WNW 15 24 30.32 1027 10 16 N/A
12:53 pm 12:53 Sunny 46 7.8 16 -8.9 30 30 VRB 7 11 30.28 1025 10 16 N/A
1:53 pm 13:53 Sunny 47 8.3 17 -8.3 30 30 VRB 6 9 30.26 1025 10 16 N/A
2:53 pm 14:53 Sunny 48 8.9 16 -8.9 28 28 NNW 6 9 30.24 1024 10 16 N/A
3:53 pm 15:53 Sunny 47 8.3 13 -10.6 25 25 N N/A 30.22 1024 10 16 N/A
4:53 pm 16:53 Sunny 45 7.2 13 -10.6 27 27 N N/A 30.22 1023 10 16 N/A
5:53 pm 17:53 Clear 39 3.9 17 -8.3 41 41 SE 7 11 30.23 1024 10 16 N/A
6:53 pm 18:53 Clear 32 undefined 18 -7.8 56 56 E 3 6 30.27 1025 10 16 N/A
7:53 pm 19:53 Clear 32 undefined 18 -7.8 56 56 ESE 3 6 30.25 1024 10 16 N/A
8:53 pm 20:53 Clear 29 -1.7 18 -7.8 63 63 N N/A 30.23 1024 10 16 N/A
9:53 pm 21:53 Clear 27 -2.8 18 -7.8 69 69 E 7 11 30.20 1023 10 16 N/A
10:53 pm 22:53 Clear 29 -1.7 19 -7.2 66 66 ESE 8 13 30.15 1021 10 16 N/A
11:53 pm 23:53 Clear 27 -2.8 19 -7.2 72 72 E 9 15 30.11 1020 10 16 N/A

Powered by AerisWeather